Home > Weather > Caguas > Past weeks

Flag for Puerto Rico Past Weather in Caguas, Puerto Rico — Yesterday and Last 2 Weeks

Now
85 °F

Scattered clouds.


Feels Like: 91 °F
Forecast: N/A
Wind: 10 mph from East

Location: Luis Munoz Marin

Current Time: Jul 29, 2016 at 7:56:04 PM

Latest Report: Jul 29, 2016 at 6:56 PM


Visibility: 10 mi

Pressure: 29.98 "Hg

Humidity: 65%

Dew Point: 72 °F

Location of CaguasLocation

Past Weather in Caguas — Graph

°F

Caguas Temperature Yesterday

Maximum temperature yesterday: 88 °F (at 10:56 AM)
Minimum temperature yesterday: 78 °F (at 11:56 PM)
Average temperature yesterday: 84 °F

High & Low Weather Summary for the Past Weeks

 TemperatureHumidityPressure
High90 °F (Jul 19, 11:56 AM)100% (Jul 18, 5:56 AM)30.09 "Hg (Jul 18, 5:56 AM)
Low76 °F (Jul 17, 11:56 PM)57% (Jul 29, 3:56 PM)29.94 "Hg (Jul 18, 5:56 PM)
Average83 °F82%30.01 "Hg
* Reported Jul 14 5:56 PM — Jul 29 5:56 PM, Caguas, Weather by CustomWeather, © 2016

Note: Actual official high and low records may vary slightly from our data, if they occured in-between our weather recording intervals... More about our weather records

Advertising

Caguas Weather History for the Previous 24 Hours

Scroll right to see more
 ConditionsComfort  
Time TempWeatherWind HumidityBarometerVisibility
5:56 PM
Fri, Jul 29
87 °FScattered clouds.16 mph61%29.97 "Hg10 mi
4:56 PM88 °FScattered clouds.15 mph63%29.96 "Hg10 mi
3:56 PM89 °FScattered clouds.14 mph57%29.97 "Hg10 mi
2:56 PM88 °FScattered clouds.20 mph65%29.97 "Hg10 mi
1:56 PM89 °FScattered clouds.17 mph61%29.98 "Hg10 mi
12:56 PM89 °FScattered clouds.20 mph63%30.00 "Hg10 mi
11:56 AM84 °FLight rain. Scattered clouds.15 mph77%30.01 "Hg10 mi
10:56 AM86 °FLight rain. Scattered clouds.13 mph75%30.02 "Hg10 mi
9:56 AM81 °FScattered clouds.5 mph88%30.03 "Hg10 mi
8:56 AM83 °FLight rain. Scattered clouds.5 mph79%30.02 "Hg10 mi
7:56 AM82 °FLight rain. Scattered clouds.No wind82%30.01 "Hg9 mi
6:56 AM78 °FLight rain. Passing clouds.No wind93%29.99 "Hg9 mi
5:56 AM78 °FPassing clouds.No wind93%29.99 "Hg10 mi
4:56 AM79 °FPassing clouds.No wind90%29.97 "Hg10 mi
3:56 AM78 °FPassing clouds.No wind90%29.97 "Hg10 mi
2:56 AM79 °FPassing clouds.5 mph90%29.98 "Hg10 mi
1:56 AM80 °FPassing clouds.No wind87%29.98 "Hg10 mi
12:56 AM79 °FPassing clouds.No wind88%30.00 "Hg10 mi
11:56 PM
Thu, Jul 28
78 °FPassing clouds.5 mph90%30.03 "Hg10 mi
10:56 PM81 °FPassing clouds.6 mph85%30.03 "Hg10 mi
9:56 PM83 °FPassing clouds.8 mph85%30.03 "Hg10 mi
8:56 PM83 °FPassing clouds.9 mph82%30.01 "Hg10 mi
7:56 PM84 °FScattered clouds.10 mph80%30.00 "Hg10 mi
Weather by CustomWeather, © 2016

See weather overviewHow to use our weather pages